Probability
42 13 0 0 0 0 0 0 0 0 0 0 0 0 0 0 0 0 0 0 0 3 16 26 35 42 39 39 42 39 42 42 42 39 39 42 39 48 48 52 55 48 42 45 42 42 45 42 35
16 10 0 0 0 0 0 0 0 0 0 0 0 0 0 0 0 0 0 0 3 10 19 23 35 35 35 39 35 35 35 39 35 39 35 39 42 39 42 45 48 42 45 42 29 39 35 32 32
10 0 0 0 0 0 0 0 0 0 0 0 0 0 0 0 0 0 0 0 0 13 13 26 29 29 32 35 39 32 32 32 29 35 35 42 45 35 42 42 45 35 35 29 23 26 29 32 32
0 0 0 0 0 0 0 0 0 0 0 0 0 0 0 0 0 0 0 0 6 10 13 23 26 29 26 29 32 32 29 29 29 26 32 39 42 45 35 35 29 29 23 19 19 23 26 26 29
0 0 0 0 0 0 0 0 0 0 0 0 0 0 0 0 0 0 0 0 6 6 10 19 29 29 29 23 29 26 26 26 29 26 26 26 29 32 26 19 16 16 13 16 19 16 19 19 19
0 0 0 0 0 0 0 0 0 0 0 0 0 0 0 0 0 0 0 0 3 6 10 16 26 32 32 29 23 26 19 16 19 19 23 26 19 19 19 23 23 13 10 10 10 13 13 16 19
0 0 0 0 0 0 0 0 0 0 0 0 0 0 0 0 0 0 0 0 3 3 3 6 6 16 16 23 23 26 13 10 10 13 13 10 13 10 13 13 13 13 10 10 10 10 13 10 13
0 0 0 0 0 0 0 0 0 0 0 0 0 0 0 0 0 0 0 0 3 3 3 0 3 3 0 3 13 16 10 10 3 6 6 6 3 6 6 6 10 13 13 13 10 6 3 10 6
0 0 0 0 0 0 0 0 0 0 0 0 0 0 0 0 0 0 0 0 3 3 0 0 0 0 0 0 3 3 10 6 3 3 3 0 0 0 0 3 10 6 6 10 3 3 3 3 3
0 0 0 0 0 0 0 0 0 0 0 0 0 0 0 0 0 0 0 0 3 3 3 0 0 0 0 0 0 0 0 0 0 0 0 0 0 0 0 0 3 6 0 0 0 0 0 0 0
0 0 0 0 0 0 0 0 0 0 0 0 0 0 0 3 3 0 0 0 0 3 3 0 0 0 0 0 0 0 0 0 0 0 0 0 0 0 0 0 0 0 0 0 0 0 0 0 0
0 0 0 0 0 0 0 0 0 0 0 0 0 0 0 0 3 3 0 0 0 3 3 0 0 0 0 0 0 0 0 0 0 0 0 0 0 0 0 0 0 0 0 0 0 0 0 0 0
0 0 0 0 0 0 0 0 0 0 0 0 0 0 0 0 3 3 3 0 0 3 3 0 0 0 0 0 0 0 0 0 0 0 0 0 0 0 0 0 0 0 0 0 0 0 0 0 0
0 0 0 0 0 0 0 0 0 0 0 0 0 0 0 0 0 0 3 0 0 0 0 0 0 0 0 0 0 0 0 0 0 0 0 0 0 0 0 0 0 0 0 0 0 0 0 0 0
0 0 0 0 0 0 0 0 0 0 0 0 0 0 0 0 0 0 0 3 0 0 0 0 0 0 0 0 0 0 0 0 0 0 0 0 0 0 0 0 0 0 0 0 0 0 0 0 0
0 0 0 0 0 0 0 0 0 0 0 0 0 0 0 0 0 0 0 0 0 0 0 0 0 0 0 0 0 0 0 0 0 0 0 0 0 0 0 0 0 0 0 0 0 0 0 0 0
0 0 0 0 0 0 0 0 0 0 0 0 0 0 0 0 0 0 0 0 0 0 0 0 0 0 0 0 0 0 0 0 0 0 0 0 0 0 0 0 0 0 0 0 0 0 0 0 0
0 0 0 0 0 0 0 0 0 0 0 0 0 0 0 0 0 0 0 0 0 0 0 0 0 0 0 0 0 0 0 0 0 0 0 0 0 0 0 0 0 0 0 0 0 0 0 0 0
0 0 0 0 0 0 0 0 0 0 0 0 0 0 0 0 0 0 3 0 0 0 0 0 0 0 0 0 0 0 0 0 0 0 0 0 0 0 0 0 0 0 0 0 0 0 0 0 0
0 0 0 0 0 0 0 0 0 0 0 0 0 0 0 0 0 0 3 3 0 0 0 0 0 0 0 0 0 0 0 0 0 0 0 0 0 0 0 0 0 0 0 0 0 0 0 0 0
0 0 0 0 0 0 0 0 0 0 0 0 0 0 0 0 0 0 3 3 0 0 0 0 0 0 0 0 0 0 0 0 0 0 0 0 0 0 0 0 0 0 0 0 0 0 0 0 0
0 0 0 0 0 0 0 0 0 0 0 0 0 0 0 0 0 0 3 3 0 0 0 0 0 0 0 0 0 0 0 0 0 0 0 0 0 0 0 0 0 0 0 0 0 0 0 0 0
0 0 0 0 0 0 0 0 0 0 0 0 0 0 0 0 0 0 0 3 3 0 0 0 0 0 0 0 0 0 0 0 0 0 0 0 0 0 0 0 0 0 0 0 0 0 0 0 0
0 0 0 0 0 0 0 0 0 0 0 0 0 0 0 0 0 0 0 3 3 0 0 0 0 0 0 0 0 0 0 0 0 0 0 0 0 0 0 0 0 0 0 0 0 0 0 0 0
0 0 0 0 0 0 0 0 0 0 0 0 0 0 0 0 0 0 0 3 0 0 0 0 0 0 0 0 0 0 0 0 0 0 0 0 0 0 0 0 0 0 0 0 0 0 0 0 0
0 0 0 0 0 0 0 0 0 0 0 0 0 0 0 0 0 0 0 3 0 0 0 0 0 0 0 0 0 0 0 0 0 0 0 0 0 0 0 0 0 0 0 0 0 0 0 0 0
0 0 0 0 0 0 0 0 0 0 0 0 0 0 0 0 0 0 0 0 0 0 0 0 0 0 0 0 0 0 0 0 0 0 0 0 0 0 0 0 0 0 0 0 0 0 0 0 0
0 0 0 0 0 0 0 0 0 0 0 0 0 0 0 0 0 0 0 0 0 0 0 0 0 0 0 0 0 0 0 0 0 0 0 0 0 0 0 0 0 0 0 0 0 0 0 0 0
0 0 0 0 0 0 0 0 0 0 0 0 0 0 0 0 0 0 0 0 0 0 0 0 0 0 0 0 0 0 0 0 0 0 0 0 0 0 0 0 0 0 0 0 0 0 0 0 0
0 0 0 0 0 0 0 0 0 0 0 0 0 0 0 0 0 0 0 0 0 0 0 0 0 0 0 0 0 0 0 0 0 0 0 0 0 0 0 0 0 0 0 0 0 0 0 0 0
Height
5856 5857 5858 5860 5861 5861 5861 5862 5862 5863 5863 5863 5863 5863 5863 5863 5864 5866 5865 5864 5865 5866 5866 5867 5867 5867 5867 5867 5867 5867 5867 5867 5867 5867 5867 5867 5867 5867 5866 5866 5866 5866 5866 5865 5865 5865 5865 5865 5865
5856 5857 5859 5860 5860 5861 5862 5862 5862 5863 5863 5863 5863 5863 5862 5862 5861 5862 5863 5863 5864 5865 5866 5866 5866 5866 5867 5867 5866 5866 5866 5866 5866 5866 5866 5866 5866 5866 5865 5865 5865 5865 5864 5864 5864 5864 5864 5864 5864
5856 5857 5859 5859 5859 5861 5861 5861 5862 5862 5863 5863 5863 5863 5862 5861 5860 5861 5862 5863 5864 5865 5865 5865 5866 5866 5866 5866 5866 5866 5865 5865 5865 5865 5865 5865 5865 5865 5864 5864 5864 5863 5863 5862 5862 5862 5862 5862 5862
5856 5857 5858 5859 5859 5860 5861 5861 5862 5862 5862 5862 5863 5862 5862 5862 5861 5861 5862 5863 5864 5864 5864 5865 5865 5865 5865 5865 5865 5865 5864 5864 5864 5864 5864 5864 5864 5864 5863 5863 5862 5861 5861 5860 5860 5861 5860 5860 5861
5856 5857 5857 5858 5859 5860 5860 5861 5861 5862 5862 5862 5862 5862 5862 5862 5862 5862 5862 5863 5863 5864 5864 5864 5864 5864 5864 5864 5864 5863 5863 5863 5863 5862 5862 5862 5862 5862 5862 5861 5861 5860 5859 5858 5858 5859 5859 5859 5859
5855 5856 5857 5857 5858 5859 5859 5860 5861 5861 5861 5861 5862 5862 5862 5862 5862 5862 5862 5863 5863 5863 5863 5863 5863 5863 5863 5862 5862 5862 5862 5862 5861 5861 5861 5861 5861 5861 5861 5860 5860 5859 5858 5857 5857 5857 5857 5857 5857
5854 5855 5855 5857 5857 5858 5859 5859 5860 5860 5861 5861 5861 5861 5861 5862 5862 5862 5862 5862 5862 5862 5862 5862 5861 5861 5861 5861 5860 5860 5860 5860 5860 5860 5860 5859 5859 5859 5859 5858 5858 5857 5857 5857 5856 5856 5856 5856 5856
5852 5854 5854 5856 5856 5857 5858 5858 5859 5860 5860 5860 5861 5861 5861 5861 5861 5862 5862 5861 5861 5861 5861 5860 5860 5859 5858 5858 5858 5858 5858 5859 5859 5858 5858 5858 5858 5858 5857 5857 5856 5856 5855 5855 5855 5854 5854 5854 5854
5851 5854 5853 5854 5855 5856 5857 5858 5858 5859 5859 5860 5860 5860 5861 5861 5861 5861 5861 5861 5860 5860 5859 5859 5858 5856 5855 5854 5855 5856 5856 5857 5857 5857 5857 5857 5856 5856 5856 5855 5855 5854 5854 5853 5853 5853 5853 5852 5852
5850 5852 5853 5853 5854 5855 5856 5857 5858 5858 5859 5859 5859 5860 5860 5860 5860 5860 5860 5860 5859 5859 5858 5857 5856 5854 5852 5851 5852 5853 5854 5855 5855 5855 5855 5855 5855 5854 5854 5853 5853 5852 5852 5851 5851 5851 5850 5850 5850
5848 5850 5851 5852 5853 5854 5855 5856 5857 5857 5858 5858 5858 5859 5859 5859 5859 5859 5859 5859 5858 5858 5857 5856 5855 5853 5851 5850 5851 5852 5853 5853 5854 5854 5853 5853 5853 5852 5852 5851 5851 5850 5850 5849 5849 5848 5848 5848 5848
5847 5848 5849 5850 5851 5853 5854 5855 5856 5856 5857 5857 5857 5857 5858 5858 5858 5858 5858 5857 5857 5856 5856 5855 5854 5853 5851 5851 5851 5851 5852 5852 5852 5852 5852 5851 5851 5850 5850 5849 5849 5848 5848 5847 5846 5846 5846 5845 5845
5845 5846 5847 5848 5850 5851 5852 5853 5854 5855 5855 5855 5855 5856 5856 5856 5856 5856 5856 5856 5856 5855 5855 5854 5853 5852 5852 5851 5851 5851 5851 5851 5850 5850 5850 5850 5849 5849 5848 5847 5847 5846 5845 5845 5844 5843 5843 5842 5842
5844 5845 5846 5847 5848 5849 5851 5852 5853 5853 5853 5854 5854 5854 5854 5854 5854 5854 5854 5854 5854 5854 5853 5853 5852 5851 5851 5851 5850 5850 5850 5849 5849 5848 5848 5848 5847 5847 5846 5846 5845 5844 5843 5842 5841 5841 5840 5839 5838
5841 5843 5844 5845 5846 5847 5849 5850 5851 5851 5852 5852 5853 5853 5853 5852 5852 5852 5852 5852 5852 5852 5852 5851 5851 5850 5850 5849 5849 5848 5848 5848 5847 5846 5846 5845 5845 5844 5844 5843 5842 5841 5840 5840 5839 5838 5837 5836 5835
5839 5840 5842 5843 5844 5845 5848 5849 5849 5849 5850 5850 5851 5851 5851 5850 5850 5850 5850 5850 5850 5850 5850 5850 5849 5849 5848 5848 5847 5847 5846 5846 5845 5844 5843 5843 5842 5842 5841 5840 5840 5839 5838 5837 5836 5835 5834 5833 5832
5836 5838 5839 5841 5842 5843 5845 5846 5847 5847 5848 5848 5848 5849 5849 5849 5849 5848 5848 5848 5848 5848 5848 5848 5847 5847 5846 5846 5845 5845 5844 5843 5843 5842 5841 5840 5840 5839 5838 5837 5837 5836 5835 5834 5833 5832 5830 5829 5828
5834 5836 5837 5839 5839 5840 5841 5843 5844 5844 5845 5846 5846 5846 5847 5847 5847 5847 5846 5846 5846 5846 5846 5846 5845 5844 5844 5844 5843 5843 5842 5841 5840 5839 5838 5837 5836 5836 5835 5834 5833 5832 5831 5830 5829 5828 5827 5825 5824
5831 5833 5834 5836 5836 5838 5838 5840 5841 5842 5842 5843 5843 5844 5844 5844 5845 5844 5844 5844 5844 5844 5843 5843 5843 5842 5842 5841 5841 5840 5839 5838 5837 5836 5835 5834 5833 5832 5832 5831 5830 5829 5828 5826 5825 5824 5823 5821 5820
5828 5830 5831 5833 5833 5834 5835 5837 5838 5839 5840 5840 5840 5841 5841 5842 5842 5842 5842 5842 5841 5841 5841 5841 5841 5840 5839 5839 5838 5837 5836 5835 5834 5833 5831 5830 5830 5829 5828 5827 5826 5825 5824 5822 5821 5820 5818 5817 5815
5826 5827 5829 5829 5830 5831 5833 5834 5835 5836 5836 5837 5837 5838 5838 5839 5839 5839 5839 5839 5839 5838 5838 5838 5837 5837 5836 5835 5835 5834 5833 5832 5830 5829 5828 5827 5826 5825 5824 5823 5822 5821 5819 5818 5817 5815 5814 5812 5811
5823 5824 5825 5826 5827 5828 5830 5830 5832 5832 5833 5833 5834 5834 5835 5835 5835 5835 5836 5836 5835 5835 5835 5834 5834 5834 5833 5832 5831 5830 5829 5828 5826 5825 5824 5823 5822 5821 5820 5819 5817 5816 5815 5814 5812 5811 5809 5808 5806
5820 5821 5822 5823 5824 5825 5826 5826 5829 5829 5829 5830 5830 5831 5831 5832 5832 5832 5832 5832 5832 5831 5831 5831 5830 5830 5829 5828 5827 5826 5825 5824 5822 5821 5820 5819 5818 5817 5815 5814 5813 5811 5810 5809 5807 5806 5804 5803 5801
5818 5819 5819 5820 5821 5822 5822 5823 5824 5825 5825 5826 5826 5827 5827 5828 5828 5828 5828 5828 5828 5828 5827 5827 5826 5826 5825 5824 5823 5822 5821 5820 5818 5817 5816 5815 5813 5812 5811 5810 5808 5807 5805 5804 5803 5801 5799 5798 5796
5815 5816 5816 5817 5817 5818 5819 5819 5820 5820 5821 5821 5822 5822 5823 5823 5823 5824 5824 5824 5824 5823 5823 5823 5822 5822 5821 5820 5819 5817 5816 5815 5813 5812 5811 5810 5809 5808 5806 5805 5803 5802 5801 5799 5798 5796 5794 5793 5791
5812 5813 5814 5814 5814 5814 5815 5815 5817 5816 5816 5816 5817 5818 5818 5818 5819 5819 5819 5819 5819 5819 5818 5818 5817 5817 5816 5815 5814 5813 5811 5810 5809 5808 5807 5806 5804 5803 5802 5800 5799 5797 5795 5794 5792 5791 5789 5787 5786
5809 5809 5810 5810 5810 5810 5810 5811 5812 5812 5811 5812 5812 5812 5813 5813 5813 5814 5814 5814 5814 5814 5814 5813 5813 5812 5811 5810 5809 5808 5806 5806 5804 5803 5802 5801 5799 5798 5797 5795 5794 5792 5791 5789 5787 5785 5783 5782 5780
5806 5806 5806 5806 5805 5805 5806 5807 5808 5807 5807 5807 5807 5807 5807 5808 5808 5808 5808 5808 5808 5808 5808 5808 5807 5806 5806 5805 5804 5803 5802 5801 5800 5798 5797 5796 5795 5793 5792 5790 5789 5787 5785 5784 5782 5780 5778 5776 5774
5802 5803 5802 5802 5802 5801 5801 5804 5803 5803 5803 5802 5802 5802 5802 5802 5802 5803 5803 5803 5803 5802 5802 5802 5801 5801 5800 5799 5798 5797 5797 5795 5794 5793 5792 5791 5789 5788 5786 5785 5783 5781 5779 5778 5776 5774 5772 5770 5768
5798 5798 5798 5799 5798 5797 5797 5801 5799 5798 5797 5797 5797 5797 5797 5797 5797 5797 5797 5797 5797 5797 5796 5796 5796 5795 5794 5793 5793 5792 5791 5790 5789 5788 5786 5785 5784 5782 5781 5779 5777 5776 5774 5772 5770 5768 5766 5764 5763
Wind_Speed
4 4 4 4 4 3 2 2 2 2 2 2 1 1 1 1 1 1 1 1 1 1 1 2 2 1 1 1 1 1 2 2 3 3 3 3 3 3 4 4 5 5 6 6 6 6 7 7 7
4 4 5 4 4 3 3 2 1 1 2 2 2 0 1 1 1 1 1 1 1 1 2 2 2 2 1 2 2 3 3 3 4 4 4 4 4 4 5 6 6 6 7 7 7 7 8 8 7
5 5 4 4 4 3 3 3 2 1 1 2 2 1 1 2 1 1 1 1 1 1 2 3 3 3 3 3 4 4 4 4 4 5 5 5 5 6 7 7 7 7 8 8 8 8 9 9 8
5 5 5 4 4 4 4 3 2 2 1 2 2 1 1 1 1 1 1 1 2 2 3 4 4 4 4 4 4 5 5 5 5 5 6 6 7 7 7 8 8 9 9 9 8 8 9 9 10
6 6 6 5 5 4 5 4 4 3 2 2 2 1 1 0 1 0 1 2 3 3 3 4 4 4 4 5 5 5 5 5 5 5 6 6 7 7 8 8 8 8 9 9 8 8 9 9 9
7 7 6 6 6 5 5 5 5 4 3 3 2 2 2 2 1 1 1 2 2 3 4 4 5 5 5 5 6 6 6 6 5 5 5 6 6 7 7 8 8 8 8 8 8 8 8 8 8
8 8 7 6 6 6 6 5 5 5 4 4 3 3 2 2 2 2 3 3 3 4 4 5 6 6 7 7 7 7 7 7 6 7 7 7 7 7 7 8 8 8 8 9 9 8 8 8 8
7 8 7 7 7 7 6 6 5 5 4 3 3 2 2 3 3 3 3 4 4 5 5 5 6 7 8 8 8 8 8 7 7 7 8 8 8 8 8 8 9 9 8 8 8 9 8 8 9
8 8 8 8 7 7 7 6 6 5 4 3 3 3 3 3 3 3 4 4 4 5 5 6 6 7 8 8 7 7 7 8 7 8 8 8 8 8 8 9 9 9 9 9 9 8 8 9 9
9 8 7 8 8 7 7 6 5 5 4 4 3 3 4 4 5 4 4 5 5 5 5 5 6 7 7 6 7 7 7 8 7 8 8 8 9 8 9 9 10 10 10 10 10 10 9 9 10
10 9 8 8 8 8 8 7 7 5 5 5 4 4 4 5 6 6 5 6 6 6 6 6 6 6 6 6 6 6 7 7 8 8 8 9 9 9 9 10 10 9 10 10 10 11 11 11 11
9 9 10 10 9 9 8 8 7 6 6 6 5 5 5 5 6 6 6 6 7 7 7 7 7 6 6 5 6 6 7 7 8 8 9 9 9 9 9 9 10 9 10 10 11 11 12 12 13
9 8 9 10 11 10 9 8 8 7 6 6 5 5 5 6 6 7 8 8 8 8 7 7 7 7 7 6 7 7 8 8 9 10 10 9 9 9 9 9 10 10 10 10 11 11 12 13 13
9 9 10 11 11 10 10 9 9 8 7 7 6 6 7 7 7 8 8 8 8 8 7 7 7 7 7 8 8 8 8 9 10 10 10 10 9 9 9 10 10 10 10 10 10 11 12 13 14
10 10 10 10 10 10 10 9 9 9 8 8 7 7 7 7 8 8 8 8 8 8 7 7 8 8 8 8 9 9 9 10 10 10 10 10 10 10 11 11 11 11 11 11 11 11 13 13 14
11 11 11 11 11 11 11 9 10 10 9 9 8 8 8 8 8 8 8 7 8 8 8 8 8 8 8 9 8 9 10 10 10 11 11 10 10 11 11 12 12 12 12 12 12 13 13 14 14
12 12 12 12 12 12 12 11 11 10 10 10 10 9 9 9 9 8 8 8 8 8 9 8 8 8 8 9 9 9 10 11 11 11 11 11 11 11 12 12 13 13 13 13 14 14 15 15 15
13 13 12 12 12 13 12 12 12 11 10 11 10 10 10 9 9 9 9 9 9 9 9 9 8 8 9 9 9 10 11 11 11 12 12 12 12 13 13 13 14 14 15 15 15 15 16 16 17
13 13 13 12 13 13 13 13 12 12 11 11 11 11 11 10 10 9 9 10 9 9 9 10 10 9 9 9 10 11 12 12 13 13 13 13 13 13 14 14 14 15 16 16 17 17 17 17 17
13 13 13 13 13 13 13 13 12 12 12 12 12 12 11 10 10 10 10 10 10 10 10 11 11 11 11 11 12 13 13 14 15 14 14 14 13 14 14 15 16 16 17 17 18 17 17 17 17
14 13 13 14 13 13 13 13 13 13 13 13 13 13 12 11 11 11 12 11 11 11 11 12 12 12 12 13 13 14 15 15 15 15 15 15 15 15 16 17 17 17 17 18 18 18 18 18 18
13 12 13 13 14 14 14 14 12 13 14 14 13 13 13 12 12 12 13 13 12 12 12 13 14 14 13 14 14 15 16 16 16 16 16 16 16 16 17 17 17 17 18 18 18 18 18 18 18
13 12 13 13 14 14 14 15 13 14 14 14 14 14 15 14 13 13 13 14 14 13 13 15 15 15 15 15 15 16 17 17 17 17 17 17 17 17 17 17 17 17 18 18 18 18 19 19 19
12 13 13 14 14 15 15 16 14 14 15 15 15 15 15 15 15 15 15 15 15 15 15 16 15 16 16 16 16 17 17 18 17 17 17 17 17 17 17 17 17 18 18 18 19 18 19 19 19
13 14 14 14 15 15 15 16 15 15 15 15 16 16 16 16 16 16 16 17 17 16 16 17 16 17 17 18 18 17 17 17 17 17 17 18 18 17 17 17 18 18 19 19 19 19 19 19 19
14 14 15 16 16 15 15 16 15 16 17 17 16 17 17 17 17 17 17 18 18 17 17 17 18 18 18 18 18 17 17 17 17 17 18 18 18 18 18 18 18 19 20 19 19 19 19 20 20
15 15 16 17 17 17 16 16 15 16 17 17 17 17 18 18 18 18 18 18 18 18 18 18 19 19 19 19 18 18 17 18 17 18 18 18 18 18 18 19 19 20 20 20 20 20 20 20 20
15 16 16 17 18 18 17 16 15 16 16 17 17 17 18 18 19 18 18 18 18 18 19 19 19 19 20 20 19 19 19 19 19 19 19 19 19 19 19 19 20 20 21 21 21 21 21 20 21
15 16 17 18 18 19 18 16 15 16 17 18 18 18 19 19 18 18 18 18 18 18 19 19 19 19 20 20 20 20 20 20 20 20 20 20 20 20 20 20 21 21 21 21 21 22 21 22 21
16 16 17 18 19 19 19 17 16 17 17 18 19 19 19 18 18 18 18 18 18 18 19 19 19 20 21 21 21 21 20 21 21 20 20 20 20 21 21 21 21 22 22 22 22 22 22 22 22
Wind_Direction
213 217 215 216 214 204 194 189 191 193 199 219 242 252 293 304 289 259 223 204 172 174 191 195 220 242 249 282 303 311 301 286 278 279 283 290 302 314 315 314 312 313 311 306 299 294 289 287 283
214 222 221 219 223 216 219 215 197 202 206 215 227 215 359 338 293 260 226 216 216 208 221 236 254 254 255 277 296 300 299 289 277 279 282 290 298 307 309 304 305 305 305 302 292 288 286 282 280
217 226 224 218 226 227 221 221 236 230 209 214 232 258 331 360 331 215 208 245 230 236 245 261 271 273 280 288 288 295 300 292 284 283 285 288 292 300 304 302 301 301 300 297 290 285 283 281 277
225 232 230 225 226 228 229 231 234 229 226 214 231 231 288 355 10 195 230 261 254 262 271 278 277 278 281 287 289 291 294 292 287 287 289 288 290 296 300 300 299 299 298 292 286 284 283 279 279
234 239 238 233 234 234 235 231 225 228 237 231 225 227 254 296 306 265 267 266 261 262 269 274 279 277 282 288 292 297 295 292 289 287 288 288 289 291 297 300 301 302 300 293 286 284 282 282 278
236 237 239 236 234 235 231 225 227 232 238 241 230 234 242 259 271 289 296 286 274 270 278 286 284 285 287 286 289 289 290 290 289 289 290 289 287 288 292 296 301 302 301 294 293 286 285 283 279
239 235 236 236 233 231 224 224 227 232 239 250 243 235 236 246 275 288 290 295 289 279 280 284 286 288 289 287 284 283 282 283 284 284 286 286 286 288 291 297 298 300 301 298 294 290 288 284 284
236 233 232 229 231 232 223 221 226 230 236 244 253 243 229 232 258 273 274 276 277 277 283 288 291 291 290 287 286 281 277 280 285 284 286 288 290 292 292 294 296 297 299 298 295 292 291 288 290
236 237 236 231 229 225 218 220 225 222 230 240 255 257 251 245 255 269 275 279 284 286 287 290 292 293 294 289 282 279 278 280 284 287 288 289 292 294 291 291 293 295 295 294 293 292 290 289 293
238 238 234 228 224 221 219 223 227 225 230 243 252 258 254 252 259 267 276 285 290 294 294 293 294 296 294 287 279 279 281 280 282 284 288 289 292 292 292 292 292 291 292 292 293 293 291 292 293
241 238 233 226 225 221 225 229 233 240 242 242 246 254 260 263 266 271 278 288 292 295 295 293 300 300 295 288 279 281 284 287 288 287 291 291 292 292 292 293 293 293 290 290 291 292 291 290 288
241 238 233 229 227 225 228 233 235 242 249 244 245 253 260 267 272 275 279 285 290 292 293 292 296 297 293 287 283 283 288 292 292 290 292 294 293 292 292 292 293 296 294 291 289 288 287 286 286
239 238 236 234 230 228 230 234 235 240 247 252 253 256 263 271 275 274 276 284 288 289 292 294 292 291 291 287 283 282 286 289 290 289 289 292 291 291 293 297 296 295 294 292 288 286 285 285 286
241 241 238 237 234 231 232 235 237 239 245 253 263 267 270 274 276 275 275 280 283 284 286 288 289 284 283 282 282 283 285 290 291 289 286 287 286 287 290 293 295 294 294 293 292 290 288 287 286
241 243 242 240 237 236 236 238 241 245 247 252 260 267 272 274 274 274 273 275 276 279 283 285 287 285 283 284 284 284 286 291 292 290 286 285 285 285 287 289 291 290 289 290 291 290 290 289 288
242 240 240 239 239 237 239 243 248 250 251 253 260 267 270 274 274 275 272 272 275 280 282 283 284 283 285 285 285 287 290 291 293 292 288 286 287 287 288 289 289 289 288 289 291 292 293 291 288
241 241 241 243 244 242 243 245 248 253 256 258 263 267 266 269 272 273 271 272 277 279 280 277 277 281 287 290 288 290 291 292 296 294 291 289 288 288 290 290 289 288 287 289 291 293 294 293 290
244 243 243 245 247 247 248 248 250 255 260 263 266 268 268 269 269 271 273 277 278 279 277 275 277 281 287 289 288 287 289 294 297 296 294 292 289 288 288 289 290 289 290 292 294 296 296 295 294
242 243 244 247 249 249 252 252 253 255 260 261 265 268 267 266 266 269 274 275 277 277 277 276 277 278 282 287 288 288 290 294 295 294 291 289 289 290 289 288 289 289 292 295 296 297 298 295 294
242 245 247 249 251 253 255 255 256 257 259 262 263 264 264 262 261 264 270 272 274 274 274 275 277 281 284 286 288 290 292 294 293 291 288 287 288 291 292 290 289 289 291 292 294 297 297 294 292
245 248 251 252 251 255 258 257 255 257 260 261 262 262 261 261 261 265 268 272 273 275 275 278 281 282 285 286 288 289 291 292 293 291 286 286 287 290 292 293 292 290 290 291 293 294 293 292 291
246 248 250 252 256 256 260 261 256 258 261 261 259 258 259 261 263 265 268 270 272 271 272 275 278 281 283 287 287 288 290 292 292 290 288 287 288 290 292 292 292 291 289 290 292 293 293 291 292
247 249 253 255 259 260 260 263 260 260 262 261 258 256 257 259 262 266 269 270 271 272 272 274 276 279 283 287 288 288 288 290 291 290 288 288 289 291 292 291 292 291 291 291 292 292 291 290 290
251 254 255 257 260 261 264 267 265 262 261 261 259 257 258 260 262 264 267 269 270 272 274 275 274 279 283 287 288 288 287 288 290 289 288 289 290 291 291 291 291 291 293 292 291 292 291 291 290
252 255 257 259 260 264 268 270 269 264 263 264 263 261 260 260 261 263 266 268 270 271 274 276 277 279 281 284 285 285 286 288 290 289 288 289 290 290 289 289 290 291 293 293 292 292 291 291 291
253 256 260 266 267 269 271 272 272 269 267 268 266 263 262 261 263 266 266 266 268 271 274 275 278 280 281 283 282 282 284 288 290 290 289 289 290 290 288 288 290 292 293 293 293 294 291 291 290
259 258 261 266 270 273 274 274 271 271 271 269 266 265 264 264 265 267 266 264 266 270 273 274 278 281 281 282 281 280 283 286 289 289 286 287 289 291 292 292 293 293 292 292 292 293 292 290 291
261 262 263 266 272 276 278 278 276 275 274 272 269 266 266 267 266 267 268 267 269 272 274 275 277 279 280 281 282 280 282 284 286 288 287 286 290 292 293 293 294 294 294 294 293 292 291 289 289
264 264 265 268 273 278 282 280 280 280 276 273 270 269 266 268 268 267 268 269 270 273 274 275 278 279 280 281 280 279 280 282 284 286 287 288 289 290 291 293 295 294 295 296 296 293 291 290 290
265 268 267 270 274 278 282 284 282 280 277 275 274 271 268 270 268 268 268 269 271 273 273 275 277 278 279 281 281 279 281 282 282 283 286 287 288 290 292 293 294 294 294 295 295 295 292 290 291